Bridgeport, CT

9:28 PM EST on January 19, 2018 (GMT -0500)
Sikorsky Memorial

Weather History for KBDR - April, 2014

Change the Weather History Date:

Tuesday, April 29, 2014

  Actual Average Record
Temperature  
Mean Temperature 47 °F 54 °F  
Max Temperature 50 °F 62 °F 86 °F (2017)
Min Temperature 43 °F 45 °F 34 °F (1966)
Degree Days  
Heating Degree Days 18 11  
Month to date heating degree days 479 461  
Since 1 July heating degree days 5461 5145  
Cooling Degree Days 0 0  
Month to date cooling degree days 0 0  
Year to date cooling degree days 0 0  
Moisture  
Dew Point 39 °F    
Average Humidity 75    
Maximum Humidity 83    
Minimum Humidity 66    
Precipitation  
Precipitation 0.01 in 0.13 in 0.65 in (1955)
Month to date precipitation 2.95 4.01  
Year to date precipitation 15.15 13.95  
Snow  
Snow 0.00 in 0.00 in 0.00 in (2002)
Month to date snowfall 0.1 0.9  
Since 1 July snowfall 57.4 27.6  
Snow Depth 0.00 in    
Sea Level Pressure  
Sea Level Pressure 30.36 in    
Wind  
Wind Speed 18 mph (East)    
Max Wind Speed 28 mph    
Max Gust Speed 35 mph    
Visibility 10 miles    
Events Rain    
T = Trace of Precipitation, MM = Missing Value Source: NWS Daily Summary

Daily Weather History Graph

Daily Weather History Graph

Search for Another Location

Airport or City:

Trip Planner

Search our weather history database for the weather conditions in past years. The results will help you decide how hot, cold, wet, or windy it might be!

Date:

Astronomy

Apr. 29, 2014 Rise Set
Actual Time 5:52 AM EDT 7:47 PM EDT
Civil Twilight 5:23 AM EDT 8:17 PM EDT
Nautical Twilight 4:46 AM EDT 8:53 PM EDT
Astronomical Twilight 4:07 AM EDT 9:33 PM EDT
Moon 6:09 AM EDT (4/29) 8:24 PM EDT (4/29)
Length of Visible Light 14h 54m
Length of Day
13h 54m
New Moon, 0% of the Moon is Illuminated
Apr 29
New Moon
May 6
First Quarter
May 14
Full
May 21
Last Quarter
May 28
New

Hourly Weather History & Observations

Time (EDT) Temp. Windchill Dew Point Humidity Pressure Visibility Wind Dir Wind Speed Gust Speed Precip Events Conditions
12:52 AM 48.0 °F - 42.1 °F 80% 30.19 in 10.0 mi ENE 5.8 mph - N/A   Mostly Cloudy
1:52 AM 48.0 °F - 42.1 °F 80% 30.19 in 10.0 mi ENE 8.1 mph - N/A   Overcast
2:52 AM 48.9 °F - 41.0 °F 74% 30.22 in 10.0 mi ENE 4.6 mph - N/A   Overcast
3:52 AM 50.0 °F - 39.9 °F 68% 30.23 in 10.0 mi ENE 6.9 mph - N/A   Overcast
4:04 AM 50.0 °F - 39.9 °F 68% 30.24 in 10.0 mi ENE 9.2 mph - N/A   Overcast
4:52 AM 48.9 °F - 41.0 °F 74% 30.24 in 10.0 mi East 11.5 mph - N/A   Overcast
5:52 AM 48.0 °F - 39.9 °F 74% 30.27 in 10.0 mi East 17.3 mph - N/A   Overcast
6:52 AM 46.9 °F - 39.0 °F 74% 30.30 in 10.0 mi East 16.1 mph - N/A   Overcast
7:52 AM 46.9 °F - 37.9 °F 71% 30.33 in 10.0 mi East 17.3 mph - N/A   Overcast
8:52 AM 46.4 °F 40.1 °F 37.4 °F 71% 30.37 in 10.0 mi East 15.0 mph - N/A   Overcast
9:52 AM 46.0 °F 38.8 °F 39.0 °F 76% 30.37 in 10.0 mi East 18.4 mph - N/A   Overcast
10:52 AM 46.4 °F 39.5 °F 37.4 °F 71% - 10.0 mi ESE 17.3 mph - N/A   Overcast
11:52 AM 46.9 °F - 37.9 °F 71% 30.39 in 10.0 mi East 19.6 mph 25.3 mph N/A   Overcast
12:04 PM 46.9 °F - 37.9 °F 71% 30.40 in 10.0 mi East 16.1 mph 26.5 mph N/A   Overcast
12:11 PM 48.0 °F - 37.9 °F 68% 30.39 in 10.0 mi East 17.3 mph - N/A   Overcast
12:52 PM 48.0 °F - 37.9 °F 68% 30.39 in 10.0 mi East 20.7 mph - N/A   Overcast
1:05 PM 48.0 °F - 37.9 °F 68% 30.40 in 10.0 mi East 16.1 mph - N/A   Overcast
1:48 PM 46.4 °F 39.5 °F 39.2 °F 76% 30.41 in 10.0 mi ESE 17.3 mph - N/A   Overcast
1:52 PM 48.0 °F - 39.0 °F 71% 30.40 in 10.0 mi ESE 16.1 mph - N/A   Overcast
2:08 PM 48.0 °F - 39.0 °F 71% 30.41 in 10.0 mi ESE 18.4 mph 24.2 mph N/A   Overcast
2:52 PM 48.9 °F - 39.0 °F 69% 30.39 in 10.0 mi East 18.4 mph - N/A   Overcast
3:52 PM 48.0 °F - 39.0 °F 71% 30.40 in 10.0 mi ESE 15.0 mph 24.2 mph N/A   Overcast
4:52 PM 46.9 °F - 39.0 °F 74% 30.38 in 10.0 mi ESE 19.6 mph 28.8 mph 0.00 in Rain Light Rain
5:52 PM 46.4 °F 39.2 °F 39.2 °F 76% 30.41 in 10.0 mi ESE 18.4 mph 27.6 mph N/A Rain Light Rain
6:52 PM 46.0 °F 38.8 °F 37.9 °F 73% 30.42 in 10.0 mi ESE 18.4 mph 28.8 mph 0.00 in   Overcast
7:52 PM 45.0 °F 35.8 °F 37.9 °F 76% 30.40 in 10.0 mi East 26.5 mph 34.5 mph 0.00 in Rain Light Rain
8:28 PM 45.0 °F 37.1 °F 39.0 °F 80% 30.45 in 10.0 mi East 19.6 mph 27.6 mph 0.00 in   Overcast
8:36 PM 45.0 °F 36.6 °F 39.0 °F 80% 30.45 in 10.0 mi East 21.9 mph 29.9 mph 0.00 in   Overcast
8:52 PM 45.0 °F 37.1 °F 37.9 °F 76% 30.46 in 10.0 mi East 19.6 mph 27.6 mph 0.00 in Rain Light Rain
9:03 PM 44.1 °F 35.0 °F 37.9 °F 79% 30.46 in 10.0 mi East 24.2 mph 28.8 mph 0.01 in Rain Light Rain
9:52 PM 44.1 °F 35.2 °F 39.0 °F 82% 30.45 in 10.0 mi East 23.0 mph - 0.01 in Rain Light Rain
10:52 PM 44.6 °F 35.7 °F 39.2 °F 81% 30.46 in 10.0 mi East 24.2 mph 29.9 mph N/A Rain Light Rain
11:52 PM 44.1 °F 35.4 °F 39.0 °F 82% 30.46 in 10.0 mi East 21.9 mph 29.9 mph 0.00 in   Overcast